SCP
0 0 0 0 0 0 0 0 0 0 0 0 0 0 0 0 0 0 0 0 0 0 -0 0 0 -0 -0 -0 -0 -0 0 0
0 0 0 0 0 0 0 0 0 0 0 0 0 0 0 0 0 0 0 0 0 -0 0 0 0 0 -0 -0 -0 -0 -0 0
0 0 0 0 0 0 0 0 0 0 0 0 0 0 0 0 0 0 0 0 0 -0 -0 -0 0 0 -0 -0 -0 -0 0 0
0 0 0 0 0 0 0 0 0 0 0 0 0 0 0 0 0 0 0 0 0 -0 -0 -0 0 0 0 -0 0 -0 -0 0
0 0 0 0 0 0 0 0 0 0 0 0 0 0 0 0 0 0 0 0 0 0 -0 -0 -0 0 0 -0 0 -0 -0 0
0 0 0 0 0 0 0 0 0 0 0 0 0 0 0 0 0 0 0 0 0 0 0 -0 -0 -0 0 0 -0 0 -0 0
0 0 0 0 0 0 0 0 0 0 0 0 0 0 0 0 0 0 0 0 0 0 -0 0 -0 -0 0 0 0 0 -0 0
0 0 0 0 0 0 0 0 0 0 0 0 0 0 0 0 0 0 0 0 0 0 0 -0 0 0 0 0 0 0 -0 -0
0 0 0 0 0 0 0 0 0 0 0 0 0 0 0 0 0 0 0 0 0 0 0 -0 -0 0 0 0 -0 0 0 -0
0 0 0 0 0 0 0 0 0 0 0 0 0 0 0 0 0 0 0 0 0 0 0 0 -0 0 0 0 0 0 0 -0
0 0 0 0 0 0 0 0 0 0 0 0 0 0 0 0 0 0 0 0 0 0 0 0 0 0 0 0 0 0 0 -0
0 0 0 0 0 0 0 0 0 0 0 0 0 0 0 0 0 0 0 0 -0 0 0 0 0 0 0 0 0 0 0 0
0 0 0 0 0 0 0 0 0 0 0 0 0 0 0 -0 0 0 0 0 -0 0 0 0 0 0 0 0 0 0 0 0
0 0 0 0 0 0 0 0 0 0 0 0 0 0 0 -0 0 0 0 0 0 0 0 0 0 0 0 0 0 0 0 0
0 0 0 0 0 0 0 0 0 0 0 0 -0 -0 0 -0 -0 -0 0 0 0 0 0 0 0 0 0 0 0 0 0 0
0 0 0 0 0 0 0 0 0 0 0 0 -0 -0 -0 -0 -0 -0 -0 -0 -0 -0 0 0 0 0 0 0 0 0 0 0
0 0 0 0 0 0 0 0 0 0 0 -0 -0 -0 -0 -0 0 -0 -0 -0 -0 -0 -0 0 0 0 0 0 0 0 0 0
0 0 0 0 0 0 0 0 0 0 0 -0 -0 -0 -0 -0 0 -0 -0 -0 -0 -0 -0 -0 -0 0 0 0 0 0 0 0
0 0 0 0 0 0 0 0 0 0 -0 -0 -0 -0 -0 -0 0 0 -0 -0 -0 -0 -0 -0 -0 0 0 0 0 0 0 0
0 0 0 0 0 0 0 0 0 0 0 -0 -0 -0 -0 -0 -0 0 0 -0 -0 -0 -0 -0 -0 0 0 0 0 0 0 0
Wind_Speed_500mb
44 55 61 73 88 88 93 101 107 113 117 121 124 109 93 101 79 81 84 68 67 71 75 60 51 72 78 72 56 50 91 82
50 58 62 78 86 90 95 101 108 112 116 117 120 108 99 95 91 87 68 68 69 75 69 65 53 61 71 67 63 42 57 68
49 59 68 85 87 92 96 103 108 110 113 114 117 109 96 92 95 86 74 66 68 71 72 74 63 45 69 59 64 54 59 46
50 67 79 83 89 95 99 106 112 113 115 117 116 104 98 93 90 86 75 78 68 68 65 70 70 44 60 59 63 62 60 69
56 71 80 84 89 95 103 107 112 115 118 118 114 106 100 91 92 84 76 70 65 60 60 65 71 65 43 50 59 66 51 52
58 73 80 85 91 97 101 106 111 114 117 117 113 107 99 96 85 87 79 70 71 61 57 69 71 77 60 46 59 61 56 53
59 70 79 84 90 98 102 106 109 114 117 119 116 107 103 100 86 86 81 74 69 71 74 69 70 76 81 64 59 68 60 49
57 67 74 79 85 94 99 103 106 110 116 120 117 110 105 97 87 80 78 70 70 70 69 77 75 67 78 82 78 75 71 51
55 65 69 75 83 90 94 99 104 109 115 117 117 106 102 91 83 75 73 74 72 71 68 70 72 61 68 81 83 81 83 66
53 59 67 74 81 90 96 100 103 109 115 116 111 102 99 92 91 88 87 82 76 73 68 66 69 61 62 63 60 79 86 70
48 55 62 69 76 85 93 98 104 107 114 112 104 99 98 91 90 85 80 78 76 69 57 52 59 59 56 56 54 78 88 74
42 50 56 64 74 81 88 94 100 103 107 106 101 101 91 89 86 78 73 71 72 63 51 50 54 55 53 53 61 82 80 75
41 47 52 60 69 78 85 91 96 101 102 106 103 101 93 89 82 77 63 69 64 68 56 41 35 42 43 50 63 69 71 73
38 43 49 55 62 73 81 88 94 98 100 105 103 101 94 89 82 80 66 65 73 70 58 47 30 30 41 48 57 63 69 71
37 42 48 54 60 68 77 83 88 95 98 100 102 105 99 90 77 74 69 68 73 72 62 48 52 37 35 38 44 57 69 72
34 40 47 54 60 66 73 79 83 87 91 95 98 98 100 91 76 65 54 57 56 65 60 50 45 37 45 46 46 54 66 73
30 37 45 52 57 62 66 72 76 81 86 89 94 95 95 97 94 69 57 52 47 52 50 35 34 50 53 48 40 45 62 81
26 34 41 47 53 56 60 64 66 70 76 80 84 89 93 95 95 99 79 56 55 63 65 37 48 36 42 41 36 41 61 84
23 30 37 43 48 51 54 57 59 60 64 70 75 81 87 90 91 89 89 93 82 77 72 48 47 19 23 32 25 32 58 67
21 28 35 39 43 45 48 52 55 58 60 63 68 74 80 86 90 93 93 88 90 97 83 60 54 55 40 22 34 36 33 49
Wind_Direction_500mb
335 340 339 330 330 330 331 331 331 331 330 330 329 324 313 313 315 298 297 298 295 276 269 276 283 277 284 294 279 266 261 273
340 343 333 326 331 331 332 331 332 330 329 328 329 324 317 311 314 309 296 285 280 276 268 267 276 268 273 282 278 271 261 274
341 339 330 330 332 331 332 331 331 330 327 328 328 327 319 313 313 312 304 296 284 280 269 262 270 272 268 277 274 270 258 280
343 339 329 330 331 332 332 331 331 329 330 331 331 327 318 314 312 308 303 298 288 280 272 261 256 262 268 274 274 275 258 256
341 331 329 330 331 331 331 331 330 331 331 334 332 325 319 313 312 309 308 302 295 283 278 266 257 253 251 270 265 271 269 241
334 328 328 331 331 330 331 330 332 332 333 335 332 327 319 316 309 304 300 295 290 278 277 275 264 251 249 250 262 268 272 240
329 327 329 332 330 329 331 332 334 334 335 337 334 325 321 321 314 308 303 298 293 280 268 268 267 254 242 245 256 265 275 246
327 327 328 330 329 328 331 333 336 336 337 339 332 328 325 324 321 317 311 308 298 290 279 264 267 263 245 239 246 256 267 261
325 327 329 330 329 330 334 336 338 338 339 338 335 328 331 328 326 323 319 312 306 299 286 271 261 264 254 238 241 250 259 263
326 327 331 332 333 334 337 338 340 341 339 341 337 336 336 332 331 326 319 313 305 300 293 273 258 258 256 230 237 248 253 256
328 331 332 335 336 338 339 340 343 341 340 342 341 343 338 331 324 325 320 310 304 300 293 279 265 258 246 229 232 243 248 254
330 335 338 339 339 341 341 343 341 342 341 344 348 347 340 336 335 333 330 327 312 300 295 285 268 262 234 217 225 241 247 256
333 339 343 343 343 344 345 343 343 344 344 350 352 349 347 343 344 341 343 345 339 329 312 299 277 240 235 236 235 239 246 246
335 342 348 349 350 347 346 345 345 346 350 355 354 353 353 348 349 347 351 344 349 345 317 311 298 265 251 244 239 239 240 240
338 345 349 351 355 352 349 347 349 349 356 359 357 357 356 355 356 349 350 347 348 348 337 342 300 288 283 269 256 245 235 237
341 347 350 354 356 355 351 350 352 354 359 2 2 2 359 359 357 351 348 347 344 348 335 334 319 294 276 273 260 247 231 221
342 346 352 357 355 354 354 355 355 358 2 7 7 7 6 4 360 8 354 352 352 354 344 330 317 277 270 258 245 240 222 210
340 350 356 355 354 355 357 359 1 2 6 9 13 14 14 13 11 3 10 17 12 5 357 0 344 286 271 244 235 215 215 203
344 349 354 353 354 356 358 1 5 7 11 14 19 20 22 22 21 19 9 9 15 23 6 12 14 341 245 224 205 202 196 194
342 350 351 350 354 357 1 2 7 11 14 16 22 27 29 29 28 29 25 18 20 24 24 34 46 50 84 147 125 126 151 174
Wind_Speed_850mb
44 55 61 73 88 88 93 101 107 113 117 121 124 109 93 101 79 81 84 68 67 71 75 60 51 72 78 72 56 50 91 82
50 58 62 78 86 90 95 101 108 112 116 117 120 108 99 95 91 87 68 68 69 75 69 65 53 61 71 67 63 42 57 68
49 59 68 85 87 92 96 103 108 110 113 114 117 109 96 92 95 86 74 66 68 71 72 74 63 45 69 59 64 54 59 46
50 67 79 83 89 95 99 106 112 113 115 117 116 104 98 93 90 86 75 78 68 68 65 70 70 44 60 59 63 62 60 69
56 71 80 84 89 95 103 107 112 115 118 118 114 106 100 91 92 84 76 70 65 60 60 65 71 65 43 50 59 66 51 52
58 73 80 85 91 97 101 106 111 114 117 117 113 107 99 96 85 87 79 70 71 61 57 69 71 77 60 46 59 61 56 53
59 70 79 84 90 98 102 106 109 114 117 119 116 107 103 100 86 86 81 74 69 71 74 69 70 76 81 64 59 68 60 49
57 67 74 79 85 94 99 103 106 110 116 120 117 110 105 97 87 80 78 70 70 70 69 77 75 67 78 82 78 75 71 51
55 65 69 75 83 90 94 99 104 109 115 117 117 106 102 91 83 75 73 74 72 71 68 70 72 61 68 81 83 81 83 66
53 59 67 74 81 90 96 100 103 109 115 116 111 102 99 92 91 88 87 82 76 73 68 66 69 61 62 63 60 79 86 70
48 55 62 69 76 85 93 98 104 107 114 112 104 99 98 91 90 85 80 78 76 69 57 52 59 59 56 56 54 78 88 74
42 50 56 64 74 81 88 94 100 103 107 106 101 101 91 89 86 78 73 71 72 63 51 50 54 55 53 53 61 82 80 75
41 47 52 60 69 78 85 91 96 101 102 106 103 101 93 89 82 77 63 69 64 68 56 41 35 42 43 50 63 69 71 73
38 43 49 55 62 73 81 88 94 98 100 105 103 101 94 89 82 80 66 65 73 70 58 47 30 30 41 48 57 63 69 71
37 42 48 54 60 68 77 83 88 95 98 100 102 105 99 90 77 74 69 68 73 72 62 48 52 37 35 38 44 57 69 72
34 40 47 54 60 66 73 79 83 87 91 95 98 98 100 91 76 65 54 57 56 65 60 50 45 37 45 46 46 54 66 73
30 37 45 52 57 62 66 72 76 81 86 89 94 95 95 97 94 69 57 52 47 52 50 35 34 50 53 48 40 45 62 81
26 34 41 47 53 56 60 64 66 70 76 80 84 89 93 95 95 99 79 56 55 63 65 37 48 36 42 41 36 41 61 84
23 30 37 43 48 51 54 57 59 60 64 70 75 81 87 90 91 89 89 93 82 77 72 48 47 19 23 32 25 32 58 67
21 28 35 39 43 45 48 52 55 58 60 63 68 74 80 86 90 93 93 88 90 97 83 60 54 55 40 22 34 36 33 49
Wind_Direction_850mb
335 340 339 330 330 330 331 331 331 331 330 330 329 324 313 313 315 298 297 298 295 276 269 276 283 277 284 294 279 266 261 273
340 343 333 326 331 331 332 331 332 330 329 328 329 324 317 311 314 309 296 285 280 276 268 267 276 268 273 282 278 271 261 274
341 339 330 330 332 331 332 331 331 330 327 328 328 327 319 313 313 312 304 296 284 280 269 262 270 272 268 277 274 270 258 280
343 339 329 330 331 332 332 331 331 329 330 331 331 327 318 314 312 308 303 298 288 280 272 261 256 262 268 274 274 275 258 256
341 331 329 330 331 331 331 331 330 331 331 334 332 325 319 313 312 309 308 302 295 283 278 266 257 253 251 270 265 271 269 241
334 328 328 331 331 330 331 330 332 332 333 335 332 327 319 316 309 304 300 295 290 278 277 275 264 251 249 250 262 268 272 240
329 327 329 332 330 329 331 332 334 334 335 337 334 325 321 321 314 308 303 298 293 280 268 268 267 254 242 245 256 265 275 246
327 327 328 330 329 328 331 333 336 336 337 339 332 328 325 324 321 317 311 308 298 290 279 264 267 263 245 239 246 256 267 261
325 327 329 330 329 330 334 336 338 338 339 338 335 328 331 328 326 323 319 312 306 299 286 271 261 264 254 238 241 250 259 263
326 327 331 332 333 334 337 338 340 341 339 341 337 336 336 332 331 326 319 313 305 300 293 273 258 258 256 230 237 248 253 256
328 331 332 335 336 338 339 340 343 341 340 342 341 343 338 331 324 325 320 310 304 300 293 279 265 258 246 229 232 243 248 254
330 335 338 339 339 341 341 343 341 342 341 344 348 347 340 336 335 333 330 327 312 300 295 285 268 262 234 217 225 241 247 256
333 339 343 343 343 344 345 343 343 344 344 350 352 349 347 343 344 341 343 345 339 329 312 299 277 240 235 236 235 239 246 246
335 342 348 349 350 347 346 345 345 346 350 355 354 353 353 348 349 347 351 344 349 345 317 311 298 265 251 244 239 239 240 240
338 345 349 351 355 352 349 347 349 349 356 359 357 357 356 355 356 349 350 347 348 348 337 342 300 288 283 269 256 245 235 237
341 347 350 354 356 355 351 350 352 354 359 2 2 2 359 359 357 351 348 347 344 348 335 334 319 294 276 273 260 247 231 221
342 346 352 357 355 354 354 355 355 358 2 7 7 7 6 4 360 8 354 352 352 354 344 330 317 277 270 258 245 240 222 210
340 350 356 355 354 355 357 359 1 2 6 9 13 14 14 13 11 3 10 17 12 5 357 0 344 286 271 244 235 215 215 203
344 349 354 353 354 356 358 1 5 7 11 14 19 20 22 22 21 19 9 9 15 23 6 12 14 341 245 224 205 202 196 194
342 350 351 350 354 357 1 2 7 11 14 16 22 27 29 29 28 29 25 18 20 24 24 34 46 50 84 147 125 126 151 174